SCP
0 0 1 1 1 0 0 0 0 1 1 1 1 1 1 2 4 4 4 4 3 4 4 6 7 8 10 11 13 14 14 13 13 13 12 12 11 11 11 10 9 7 6 6
1 1 1 1 1 1 0 0 1 1 1 1 1 1 1 2 4 5 4 4 3 4 4 5 6 7 8 12 15 16 16 15 15 14 14 14 14 13 13 12 11 9 7 7
0 0 0 0 0 0 0 0 1 1 1 1 1 1 1 2 4 5 4 4 4 4 4 4 5 5 7 11 16 18 18 17 16 16 16 16 16 15 14 13 12 11 9 8
0 0 0 0 0 0 0 0 1 1 1 2 2 1 1 2 4 4 5 5 5 5 4 4 4 5 7 11 15 17 18 17 17 16 16 15 15 14 14 13 12 11 10 9
0 0 0 0 0 0 1 1 1 1 2 2 2 2 2 2 3 4 5 6 6 6 5 5 5 6 8 12 16 17 16 15 14 13 13 12 11 11 11 10 10 10 10 9
0 0 0 0 0 1 1 1 1 2 3 3 2 2 2 3 3 4 5 6 7 7 6 6 7 7 9 11 15 15 13 10 9 9 8 7 7 7 7 7 8 8 8 8
0 0 0 0 0 1 1 1 1 2 3 3 2 3 3 4 4 4 5 6 7 7 7 7 8 9 9 10 11 11 8 6 5 6 5 4 4 4 4 4 5 5 5 5
0 0 0 0 1 1 1 1 1 2 2 3 3 3 4 5 4 4 4 5 7 7 7 8 9 9 9 9 9 8 7 6 5 5 4 3 2 2 2 2 2 3 3 2
1 1 1 1 2 2 1 1 2 2 2 3 3 4 5 6 5 5 4 5 6 7 7 8 8 9 9 9 8 9 9 9 7 6 4 3 2 2 2 2 2 2 2 1
2 2 2 2 2 2 2 2 2 2 2 3 4 5 7 8 8 6 5 4 5 6 7 8 8 8 8 8 8 9 11 12 10 7 4 2 2 2 2 2 2 2 2 1
3 3 3 3 3 2 2 2 2 2 3 4 4 6 8 9 9 7 5 5 5 6 7 8 8 7 7 7 7 8 10 12 10 7 4 2 2 2 2 2 2 2 2 2
2 3 3 3 3 2 2 2 3 4 5 5 5 6 8 9 8 5 4 4 5 7 7 7 7 6 5 5 6 7 9 9 8 5 4 4 4 3 2 2 2 1 1 1
2 2 3 3 3 3 3 4 6 7 8 7 5 5 7 7 5 4 3 4 6 7 7 7 6 5 5 5 6 7 8 7 6 4 4 4 4 3 2 1 1 1 1 1
2 2 2 2 2 3 5 7 8 9 9 8 6 5 4 4 4 4 4 5 6 7 7 6 5 5 5 5 6 6 6 5 5 4 3 3 3 2 1 1 0 1 1 1
1 1 1 2 3 5 6 7 8 9 9 7 5 4 3 4 5 5 4 5 6 6 5 4 3 3 4 4 4 5 5 4 4 4 3 2 1 1 1 0 0 1 1 1
1 1 1 2 4 5 6 6 7 7 6 5 3 3 3 4 4 4 4 4 5 5 4 3 2 2 2 3 3 4 4 4 4 4 3 2 1 1 0 0 0 0 1 1
1 1 2 3 3 3 4 4 5 5 4 3 2 2 2 2 2 2 2 4 4 4 3 2 2 1 1 1 2 3 4 4 5 5 4 2 1 1 1 0 0 0 0 0
2 2 3 3 3 2 2 3 3 3 3 2 1 1 1 1 1 1 1 2 2 2 2 1 1 1 1 1 1 3 5 6 7 7 6 4 2 1 0 0 0 0 0 0
3 3 3 3 3 2 2 2 2 2 2 2 1 1 1 1 1 0 0 1 1 1 0 0 0 0 0 0 1 1 3 5 8 8 7 6 4 2 1 0 0 0 0 0
2 2 3 3 2 2 2 2 1 2 2 2 1 1 1 0 0 0 0 0 0 0 0 0 0 0 0 0 0 0 1 3 5 6 6 6 5 4 2 1 0 0 0 0
1 1 1 1 1 1 1 1 1 1 2 2 1 1 0 0 0 0 0 0 0 0 0 0 0 0 0 0 0 0 1 1 2 3 4 5 6 5 4 3 1 0 0 0
0 0 0 0 0 0 0 0 0 1 1 1 1 0 0 0 0 0 0 0 0 0 0 0 0 0 0 0 0 0 0 0 1 1 3 4 5 5 5 4 2 0 0 0
0 0 0 0 0 0 0 0 0 0 0 0 0 0 0 0 0 0 0 0 0 0 0 0 0 0 0 0 0 0 0 0 1 1 2 3 4 4 5 4 2 0 0 0
0 0 0 1 0 0 0 0 0 0 0 0 0 0 0 0 0 0 0 0 0 0 0 0 0 0 0 0 0 0 0 0 1 1 1 2 2 3 3 3 1 0 0 0
0 0 0 0 0 0 0 0 0 0 0 0 0 0 0 0 0 0 0 0 0 0 0 0 0 0 0 0 0 0 0 0 0 0 0 1 1 1 1 1 1 0 0 0
0 0 0 0 0 0 0 0 0 0 0 0 0 0 0 0 0 0 0 0 0 0 0 0 0 0 0 0 0 1 1 1 0 0 0 0 1 0 0 0 0 0 0 0
0 0 0 0 0 0 0 0 0 0 0 0 0 0 0 0 0 0 0 0 0 0 0 0 0 0 0 0 0 1 1 1 0 0 0 0 0 0 0 0 0 0 0 0
Wind_Speed
2 2 2 2 2 4 5 7 8 7 6 7 6 5 5 3 2 2 3 3 5 5 5 5 5 5 5 5 5 5 5 5 5 4 4 4 4 4 3 3 3 3 2 2
1 1 0 1 2 2 3 3 4 2 4 5 4 2 2 2 3 4 4 5 4 4 5 5 5 5 5 5 5 6 6 5 5 5 5 5 4 4 4 3 3 3 2 2
1 3 2 2 3 2 1 1 3 4 5 2 2 4 4 4 4 5 5 5 5 5 5 5 5 6 5 5 6 7 7 6 5 5 5 5 5 4 4 3 3 2 2 2
2 1 4 6 2 1 2 1 0 1 2 2 4 6 4 3 4 4 4 4 5 5 4 4 4 4 4 5 6 6 6 6 6 6 5 5 5 4 4 3 3 2 2 1
4 2 3 4 1 1 1 1 1 0 3 3 4 3 3 1 2 4 5 5 5 5 4 4 4 4 5 5 6 6 6 6 6 7 6 6 5 5 4 3 2 2 2 2
4 4 6 6 3 2 2 2 2 1 2 3 3 2 5 4 4 4 3 3 4 4 4 5 4 4 5 4 5 6 6 6 6 6 7 6 6 5 3 3 3 2 1 1
4 3 6 5 5 2 3 5 3 2 3 2 2 5 5 5 4 4 3 2 2 4 5 5 6 6 5 5 5 5 5 5 5 5 6 5 4 4 4 4 3 2 2 1
4 3 6 3 2 2 5 3 2 3 3 2 3 4 3 2 2 2 2 1 1 3 3 4 6 7 6 6 5 5 6 5 5 5 5 5 5 5 5 5 4 3 2 1
6 6 4 2 3 4 3 2 3 2 3 2 3 3 3 2 2 2 1 0 1 3 3 3 5 7 7 6 5 6 6 6 5 5 4 4 5 5 4 4 3 3 2 2
2 4 4 4 4 3 2 2 2 2 2 2 2 3 3 2 2 2 2 1 1 2 3 2 3 4 4 5 7 7 6 6 5 5 4 3 3 3 4 4 4 3 3 3
3 4 4 5 4 3 2 1 1 2 2 2 1 2 2 2 2 1 1 1 0 1 2 1 1 2 2 4 6 6 6 5 4 4 5 4 3 2 3 3 4 5 4 3
6 5 4 5 5 3 2 2 1 1 2 2 1 2 1 1 2 1 1 1 1 1 2 1 1 2 2 4 5 6 5 5 4 3 3 4 4 2 3 2 2 3 3 3
5 4 4 5 5 4 2 2 2 2 2 3 2 1 0 0 1 0 1 1 1 1 2 2 2 2 1 3 4 5 5 5 4 4 4 4 4 4 2 2 3 2 2 4
4 2 3 3 4 3 2 2 2 2 2 2 2 1 0 1 1 1 1 1 2 3 3 3 3 2 1 2 4 4 4 5 5 3 3 3 4 3 3 3 2 0 0 2
3 3 4 3 3 2 1 1 2 3 3 2 1 0 0 1 1 1 1 2 4 5 4 4 3 2 2 3 3 4 3 3 3 3 3 3 3 3 3 3 2 1 1 0
2 1 1 1 2 3 2 1 2 4 3 2 1 0 0 1 1 2 2 2 3 4 3 3 2 1 2 3 4 3 3 4 4 3 3 3 2 3 3 2 2 2 2 1
1 2 2 3 3 3 2 2 2 3 3 3 2 1 1 2 3 3 2 2 3 3 3 2 1 1 2 3 3 2 2 3 5 3 3 2 2 2 3 2 2 2 2 2
3 3 3 3 2 2 2 2 2 2 2 2 0 0 1 2 2 2 2 2 3 4 2 1 1 2 2 2 2 2 2 3 3 3 2 2 2 2 2 2 2 2 1 1
1 1 2 1 1 2 2 3 3 2 2 1 0 1 1 1 1 1 2 3 3 1 2 1 2 2 1 1 2 3 3 3 2 2 2 2 2 1 2 2 2 2 2 1
2 1 1 2 2 2 2 2 2 1 1 0 1 1 1 1 1 2 2 1 0 1 1 1 1 1 1 2 3 2 3 3 3 2 2 2 1 2 2 2 2 2 2 1
2 2 2 2 1 1 1 1 1 1 1 1 1 1 1 1 1 2 2 1 2 1 1 2 1 1 1 2 3 2 2 2 3 2 2 2 2 2 2 2 2 2 1 1
2 2 3 2 2 2 2 1 1 1 1 1 1 1 1 0 1 2 1 1 0 2 2 1 1 2 3 3 2 2 2 2 2 2 2 2 2 2 2 2 2 2 1 1
2 2 2 2 2 2 2 2 2 2 1 1 1 0 1 1 1 2 1 0 1 2 2 2 3 5 5 3 2 3 3 3 2 2 2 2 2 2 2 2 2 2 1 1
2 2 3 2 2 3 3 3 3 2 2 2 2 1 1 2 2 1 1 2 3 3 3 3 5 5 4 3 3 3 3 3 3 2 2 2 2 2 2 2 2 2 2 2
1 1 2 2 2 2 2 3 4 4 4 3 4 4 3 2 2 2 3 3 5 5 4 4 6 6 4 3 3 3 3 3 3 3 2 2 2 2 2 2 2 2 2 2
1 2 2 2 2 1 2 2 3 3 3 3 4 4 4 3 4 4 3 4 6 6 4 3 3 4 3 3 3 3 3 3 3 2 2 2 2 2 1 1 2 2 2 1
3 3 3 3 3 3 3 3 3 3 3 3 3 3 4 4 4 4 5 4 4 4 3 3 3 3 3 3 3 3 3 2 2 2 2 2 2 1 1 1 1 1 1 1
Wind_Direction
220 239 199 197 200 180 176 178 179 217 220 251 257 245 244 227 180 161 162 164 177 176 173 175 182 178 173 174 164 163 163 171 177 168 155 148 149 152 149 146 145 136 124 115
359 349 215 233 268 205 196 174 193 204 248 260 278 270 245 216 186 190 197 194 195 186 180 183 185 178 170 172 168 159 164 171 165 155 151 154 154 152 144 137 129 122 122 122
246 309 37 264 251 200 188 194 173 198 237 294 315 290 254 230 205 207 207 197 191 197 199 198 188 177 174 173 163 161 163 161 158 157 157 159 157 153 152 149 141 135 133 136
133 80 215 240 270 179 139 110 260 231 267 254 262 271 258 216 200 218 221 211 202 200 198 197 183 167 160 157 161 163 162 161 161 159 162 160 155 158 159 151 152 155 160 164
123 158 269 293 340 79 147 268 5 344 317 321 323 345 324 279 226 227 229 221 210 194 185 182 172 160 152 155 156 159 167 170 170 167 164 162 167 171 163 154 157 167 164 166
129 155 220 244 284 285 145 259 325 334 303 316 8 17 286 306 305 291 269 222 195 172 158 162 166 151 150 158 162 172 175 174 169 165 165 170 174 169 154 150 157 152 136 131
151 193 251 266 301 20 148 243 286 269 272 273 244 231 264 305 309 300 296 263 172 157 164 173 161 155 161 169 187 182 160 156 160 163 164 163 160 151 145 144 139 136 137 119
144 178 244 305 23 154 225 259 257 262 263 266 274 287 292 304 316 321 330 340 137 147 166 164 157 161 173 190 192 161 150 152 160 161 158 152 151 146 143 146 145 151 152 137
188 211 246 284 252 261 236 245 264 257 283 295 307 302 310 322 332 336 335 355 153 150 160 161 167 171 181 196 169 157 153 155 157 148 144 146 152 151 147 151 156 166 173 183
260 273 282 295 295 291 255 240 262 262 280 300 286 290 308 319 333 348 343 326 168 149 159 175 182 180 186 171 160 155 157 155 154 146 136 132 139 149 155 167 172 175 185 194
253 279 316 316 310 302 314 338 340 324 309 282 260 275 280 305 315 331 336 354 82 160 163 194 178 151 151 153 150 149 150 144 144 146 145 143 140 147 168 185 188 181 191 190
228 233 221 264 284 299 304 300 295 332 330 307 249 237 270 314 305 316 29 35 83 104 112 131 150 138 147 149 147 145 143 142 145 150 150 146 139 111 64 108 140 173 174 167
233 242 232 258 287 295 290 295 293 284 261 286 303 263 191 311 309 3 92 114 122 109 108 119 115 123 140 139 136 144 152 153 150 160 164 159 156 155 145 72 77 113 154 168
236 240 274 276 278 294 308 316 311 312 300 287 295 304 177 83 55 56 71 125 115 105 94 87 85 60 63 114 127 137 147 152 152 162 167 162 162 163 161 158 158 178 218 194
269 234 235 259 284 297 310 348 351 329 320 323 320 276 171 168 130 89 66 108 107 100 96 88 74 43 48 96 121 132 135 141 144 147 150 157 161 159 157 162 171 177 162 175
285 312 275 276 287 304 318 317 317 303 300 292 263 230 222 136 99 101 82 88 104 103 96 91 81 41 76 101 108 115 126 137 146 146 146 153 160 159 161 169 178 190 200 195
232 270 280 286 284 286 275 269 268 277 284 280 260 218 118 94 82 77 61 57 85 93 85 80 73 55 71 92 112 128 134 136 137 136 149 163 174 176 174 180 189 197 216 203
229 240 243 247 262 283 296 294 292 298 291 277 311 135 141 131 127 109 87 76 72 60 43 34 60 73 76 103 123 133 133 130 138 152 159 164 171 173 170 179 188 184 179 150
307 280 270 262 264 267 281 286 284 281 285 323 193 191 180 143 133 135 117 105 94 59 332 353 66 70 69 107 118 123 127 130 133 138 143 147 154 160 171 180 179 162 149 133
325 329 320 310 307 290 291 289 280 283 282 160 128 103 88 123 138 131 112 88 47 215 212 70 72 76 89 99 101 112 122 130 132 133 134 146 154 155 154 151 144 137 133 138
334 332 332 325 314 303 303 304 305 304 328 50 115 136 212 257 124 117 108 54 339 18 83 88 85 87 89 98 96 107 117 124 128 130 136 135 131 128 125 127 128 134 141 144
346 341 343 350 5 355 344 346 346 4 35 39 47 81 128 142 99 85 82 148 100 71 70 72 83 93 98 97 96 103 111 116 118 120 127 131 134 136 139 144 142 144 147 146
349 350 352 353 355 355 5 13 18 41 47 19 355 309 196 186 164 139 122 58 103 93 79 67 82 86 86 84 93 101 106 107 107 110 118 128 138 150 155 156 152 151 148 136
2 2 356 356 27 42 26 10 18 29 35 24 13 15 76 95 69 60 111 96 86 92 83 83 85 82 81 84 92 98 99 98 98 100 103 108 117 130 141 147 150 153 150 148
6 18 21 29 38 33 28 31 42 46 48 48 38 34 38 64 100 92 89 92 92 89 82 76 73 74 77 83 88 92 94 97 104 107 113 120 129 137 142 145 150 152 154 154
21 32 39 40 41 38 44 61 64 53 53 54 43 37 42 50 70 80 83 85 85 83 79 71 66 69 74 80 86 87 88 93 95 95 103 112 120 123 121 122 138 148 146 137
38 43 50 48 39 39 53 66 70 58 51 62 57 42 48 58 65 69 73 75 75 72 67 61 62 69 74 76 78 77 77 79 84 90 96 99 103 108 120 131 133 135 132 129